Time,TemperatureF,DewpointF,PressureIn,WindDirection,WindDirectionDegrees,WindSpeedMPH,WindSpeedGustMPH,Humidity,HourlyPrecipIn,Conditions,Clouds,dailyrainin,SoftwareType,DateUTC
2013-09-14 00:00:00,56.1,53.2,29.74,NNW,333,5.0,5.0,90,0.09,,,0.01,Wunderground v.1.15,2013-09-14 04:00:00,
2013-09-14 00:05:00,55.9,53.0,29.74,NNW,333,6.0,7.0,90,0.09,,,0.02,Wunderground v.1.15,2013-09-14 04:05:00,
2013-09-14 00:10:00,55.7,53.1,29.75,NW,314,6.0,6.0,91,0.51,,,0.05,Wunderground v.1.15,2013-09-14 04:10:00,
2013-09-14 00:15:00,55.5,53.2,29.75,North,360,5.0,9.0,92,0.27,,,0.08,Wunderground v.1.15,2013-09-14 04:15:00,
2013-09-14 00:25:00,55.1,53.1,29.76,NW,316,3.0,5.0,93,0.18,,,0.11,Wunderground v.1.15,2013-09-14 04:25:00,
2013-09-14 00:30:00,55.0,53.0,29.76,NW,315,2.0,2.0,93,0.11,,,0.12,Wunderground v.1.15,2013-09-14 04:30:00,
2013-09-14 00:35:00,54.9,52.9,29.75,NNW,330,3.0,4.0,93,0.16,,,0.13,Wunderground v.1.15,2013-09-14 04:35:00,
2013-09-14 00:40:00,54.8,53.1,29.75,NW,323,5.0,5.0,94,0.08,,,0.13,Wunderground v.1.15,2013-09-14 04:40:00,
2013-09-14 00:45:00,54.7,53.0,29.75,NW,323,6.0,7.0,94,0.14,,,0.15,Wunderground v.1.15,2013-09-14 04:45:00,
2013-09-14 00:55:00,54.6,52.9,29.75,NW,322,5.0,9.0,94,0.06,,,0.16,Wunderground v.1.15,2013-09-14 04:55:00,
2013-09-14 01:00:00,54.6,53.2,29.76,NW,325,6.0,6.0,95,0.14,,,0.17,Wunderground v.1.15,2013-09-14 05:00:00,
2013-09-14 01:05:00,54.5,53.1,29.76,NNW,348,6.0,6.0,95,0.12,,,0.18,Wunderground v.1.15,2013-09-14 05:05:00,
2013-09-14 01:15:00,54.4,53.0,29.76,North,355,3.0,4.0,95,0.09,,,0.20,Wunderground v.1.15,2013-09-14 05:15:00,
2013-09-14 01:20:00,54.4,53.0,29.76,NNW,338,4.0,8.0,95,0.19,,,0.21,Wunderground v.1.15,2013-09-14 05:20:00,
2013-09-14 01:25:00,54.3,52.9,29.75,North,355,6.0,8.0,95,0.18,,,0.23,Wunderground v.1.15,2013-09-14 05:25:00,
2013-09-14 01:30:00,54.3,52.9,29.75,NNW,331,7.0,11.0,95,0.23,,,0.25,Wunderground v.1.15,2013-09-14 05:30:00,
2013-09-14 01:35:00,54.2,53.1,29.75,North,355,7.0,11.0,96,0.14,,,0.26,Wunderground v.1.15,2013-09-14 05:35:00,
2013-09-14 01:40:00,54.1,53.0,29.75,North,5,7.0,7.0,96,0.14,,,0.27,Wunderground v.1.15,2013-09-14 05:40:00,
2013-09-14 01:45:00,54.1,53.0,29.75,NNW,345,7.0,7.0,96,0.09,,,0.27,Wunderground v.1.15,2013-09-14 05:45:00,
2013-09-14 01:55:00,54.0,52.9,29.74,North,355,7.0,14.0,96,0.05,,,0.28,Wunderground v.1.15,2013-09-14 05:55:00,
2013-09-14 02:00:00,53.9,52.8,29.73,NE,48,8.0,9.0,96,0.07,,,0.29,Wunderground v.1.15,2013-09-14 06:00:00,
2013-09-14 02:05:00,53.9,52.5,29.74,North,355,9.0,9.0,95,0.07,,,0.29,Wunderground v.1.15,2013-09-14 06:05:00,
2013-09-14 02:15:00,53.7,52.3,29.74,NNW,344,4.0,6.0,95,0.05,,,0.30,Wunderground v.1.15,2013-09-14 06:15:00,
2013-09-14 02:25:00,53.6,52.2,29.74,NNW,344,7.0,11.0,95,0.09,,,0.31,Wunderground v.1.15,2013-09-14 06:25:00,
2013-09-14 02:30:00,53.5,52.1,29.73,NNE,25,6.0,9.0,95,0.05,,,0.31,Wunderground v.1.15,2013-09-14 06:30:00,
2013-09-14 02:35:00,53.4,52.0,29.74,NNW,327,6.0,9.0,95,0.04,,,0.31,Wunderground v.1.15,2013-09-14 06:35:00,
2013-09-14 02:40:00,53.3,51.9,29.74,North,5,6.0,6.0,95,0.00,,,0.32,Wunderground v.1.15,2013-09-14 06:40:00,
2013-09-14 02:45:00,53.2,51.8,29.74,NNW,338,6.0,6.0,95,0.00,,,0.32,Wunderground v.1.15,2013-09-14 06:45:00,
2013-09-14 02:55:00,53.0,51.6,29.74,North,360,6.0,7.0,95,0.07,,,0.33,Wunderground v.1.15,2013-09-14 06:55:00,
2013-09-14 03:00:00,52.9,51.8,29.74,North,355,4.0,4.0,96,0.04,,,0.33,Wunderground v.1.15,2013-09-14 07:00:00,
2013-09-14 03:05:00,52.8,51.7,29.74,NNW,347,4.0,7.0,96,0.04,,,0.34,Wunderground v.1.15,2013-09-14 07:05:00,
2013-09-14 03:10:00,52.7,51.6,29.74,North,11,4.0,4.0,96,0.04,,,0.34,Wunderground v.1.15,2013-09-14 07:10:00,
2013-09-14 03:15:00,52.7,51.6,29.73,NNW,342,4.0,5.0,96,0.04,,,0.34,Wunderground v.1.15,2013-09-14 07:15:00,
2013-09-14 03:20:00,52.6,51.5,29.74,NNW,331,4.0,4.0,96,0.04,,,0.34,Wunderground v.1.15,2013-09-14 07:20:00,
2013-09-14 03:25:00,52.6,51.5,29.74,NNW,334,4.0,7.0,96,0.00,,,0.34,Wunderground v.1.15,2013-09-14 07:25:00,
2013-09-14 03:30:00,52.5,51.1,29.74,North,360,4.0,4.0,95,0.00,,,0.34,Wunderground v.1.15,2013-09-14 07:30:00,
2013-09-14 03:40:00,52.3,51.2,29.73,North,360,6.0,9.0,96,0.00,,,0.34,Wunderground v.1.15,2013-09-14 07:40:00,
2013-09-14 03:45:00,52.1,51.0,29.73,North,355,6.0,10.0,96,0.00,,,0.34,Wunderground v.1.15,2013-09-14 07:45:00,
2013-09-14 03:50:00,52.0,50.6,29.73,NNW,340,6.0,6.0,95,0.00,,,0.34,Wunderground v.1.15,2013-09-14 07:50:00,
2013-09-14 04:00:00,51.7,50.6,29.73,North,9,7.0,7.0,96,0.00,,,0.34,Wunderground v.1.15,2013-09-14 08:00:00,
2013-09-14 04:10:00,51.7,50.6,29.73,North,5,5.0,5.0,96,0.00,,,0.34,Wunderground v.1.15,2013-09-14 08:10:00,
2013-09-14 04:15:00,51.6,50.5,29.74,NNE,18,6.0,6.0,96,0.00,,,0.34,Wunderground v.1.15,2013-09-14 08:15:00,
2013-09-14 04:20:00,51.6,50.5,29.74,North,355,6.0,6.0,96,0.00,,,0.34,Wunderground v.1.15,2013-09-14 08:20:00,
2013-09-14 04:25:00,51.5,50.4,29.75,NW,309,5.0,6.0,96,0.00,,,0.34,Wunderground v.1.15,2013-09-14 08:25:00,
2013-09-14 04:30:00,51.5,50.1,29.75,NW,326,5.0,5.0,95,0.00,,,0.34,Wunderground v.1.15,2013-09-14 08:30:00,
2013-09-14 04:40:00,51.4,50.0,29.76,NW,321,6.0,6.0,95,0.00,,,0.34,Wunderground v.1.15,2013-09-14 08:40:00,
2013-09-14 04:45:00,51.3,49.9,29.76,NW,306,5.0,7.0,95,0.00,,,0.34,Wunderground v.1.15,2013-09-14 08:45:00,
2013-09-14 04:50:00,51.3,49.9,29.77,NNW,328,5.0,5.0,95,0.00,,,0.34,Wunderground v.1.15,2013-09-14 08:50:00,
2013-09-14 04:55:00,51.3,49.9,29.77,NW,317,4.0,5.0,95,0.00,,,0.34,Wunderground v.1.15,2013-09-14 08:55:00,
2013-09-14 05:00:00,51.3,49.9,29.77,WNW,284,3.0,4.0,95,0.00,,,0.34,Wunderground v.1.15,2013-09-14 09:00:00,
2013-09-14 05:05:00,51.3,49.9,29.77,NW,315,4.0,5.0,95,0.00,,,0.34,Wunderground v.1.15,2013-09-14 09:05:00,
2013-09-14 05:10:00,51.3,49.9,29.78,NW,316,5.0,6.0,95,0.00,,,0.34,Wunderground v.1.15,2013-09-14 09:10:00,
2013-09-14 05:15:00,51.3,49.9,29.78,NNW,330,5.0,6.0,95,0.00,,,0.34,Wunderground v.1.15,2013-09-14 09:15:00,
2013-09-14 05:20:00,51.2,49.8,29.78,WNW,299,5.0,5.0,95,0.00,,,0.34,Wunderground v.1.15,2013-09-14 09:20:00,
2013-09-14 05:25:00,51.2,49.5,29.78,NW,313,6.0,7.0,94,0.00,,,0.34,Wunderground v.1.15,2013-09-14 09:25:00,
2013-09-14 05:30:00,51.2,49.5,29.78,NNW,333,6.0,7.0,94,0.00,,,0.34,Wunderground v.1.15,2013-09-14 09:30:00,
2013-09-14 05:35:00,51.1,49.4,29.79,NW,326,6.0,7.0,94,0.00,,,0.34,Wunderground v.1.15,2013-09-14 09:35:00,
2013-09-14 05:40:00,50.9,49.2,29.79,NNW,328,5.0,5.0,94,0.00,,,0.34,Wunderground v.1.15,2013-09-14 09:40:00,
2013-09-14 05:45:00,50.8,49.4,29.79,NW,325,5.0,6.0,95,0.00,,,0.34,Wunderground v.1.15,2013-09-14 09:45:00,
2013-09-14 05:50:00,50.7,49.3,29.79,NW,326,4.0,6.0,95,0.00,,,0.34,Wunderground v.1.15,2013-09-14 09:50:00,
2013-09-14 05:55:00,50.6,49.2,29.80,NNW,342,4.0,6.0,95,0.00,,,0.34,Wunderground v.1.15,2013-09-14 09:55:00,
2013-09-14 06:00:00,50.5,49.1,29.80,NW,317,4.0,11.0,95,0.00,,,0.34,Wunderground v.1.15,2013-09-14 10:00:00,
2013-09-14 06:05:00,50.4,49.0,29.80,NW,311,5.0,11.0,95,0.00,,,0.34,Wunderground v.1.15,2013-09-14 10:05:00,
2013-09-14 06:10:00,50.4,49.0,29.81,North,350,6.0,6.0,95,0.00,,,0.34,Wunderground v.1.15,2013-09-14 10:10:00,
2013-09-14 06:15:00,50.2,48.8,29.81,NNW,328,7.0,7.0,95,0.00,,,0.34,Wunderground v.1.15,2013-09-14 10:15:00,
2013-09-14 06:20:00,50.1,48.7,29.81,North,360,7.0,7.0,95,0.00,,,0.34,Wunderground v.1.15,2013-09-14 10:20:00,
2013-09-14 06:25:00,50.0,48.6,29.81,NNW,346,6.0,11.0,95,0.00,,,0.34,Wunderground v.1.15,2013-09-14 10:25:00,
2013-09-14 06:30:00,49.8,48.4,29.81,NNW,338,7.0,7.0,95,0.00,,,0.34,Wunderground v.1.15,2013-09-14 10:30:00,
2013-09-14 06:35:00,49.8,48.4,29.81,NNW,331,7.0,8.0,95,0.00,,,0.34,Wunderground v.1.15,2013-09-14 10:35:00,
2013-09-14 06:40:00,49.7,48.3,29.81,NW,323,6.0,6.0,95,0.00,,,0.34,Wunderground v.1.15,2013-09-14 10:40:00,
2013-09-14 06:45:00,49.6,48.2,29.81,NW,325,6.0,6.0,95,0.00,,,0.34,Wunderground v.1.15,2013-09-14 10:45:00,
2013-09-14 06:55:00,49.2,47.8,29.81,NNW,334,8.0,8.0,95,0.00,,,0.34,Wunderground v.1.15,2013-09-14 10:55:00,
2013-09-14 07:00:00,49.0,47.6,29.82,North,360,8.0,11.0,95,0.00,,,0.34,Wunderground v.1.15,2013-09-14 11:00:00,
2013-09-14 07:10:00,48.7,47.3,29.81,WNW,303,7.0,8.0,95,0.00,,,0.34,Wunderground v.1.15,2013-09-14 11:10:00,
2013-09-14 07:15:00,48.6,47.5,29.81,NW,325,7.0,8.0,96,0.00,,,0.34,Wunderground v.1.15,2013-09-14 11:15:00,
2013-09-14 07:25:00,48.5,47.4,29.82,WNW,301,8.0,8.0,96,0.00,,,0.35,Wunderground v.1.15,2013-09-14 11:25:00,
2013-09-14 07:30:00,48.5,47.4,29.82,NW,307,7.0,8.0,96,0.00,,,0.35,Wunderground v.1.15,2013-09-14 11:30:00,
2013-09-14 07:35:00,48.6,47.5,29.82,NW,318,5.0,8.0,96,0.00,,,0.35,Wunderground v.1.15,2013-09-14 11:35:00,
2013-09-14 07:40:00,48.6,47.5,29.83,NW,317,5.0,9.0,96,0.00,,,0.35,Wunderground v.1.15,2013-09-14 11:40:00,
2013-09-14 07:45:00,48.5,47.4,29.83,NW,312,7.0,9.0,96,0.00,,,0.35,Wunderground v.1.15,2013-09-14 11:45:00,
2013-09-14 07:50:00,48.5,47.4,29.83,NW,309,6.0,6.0,96,0.00,,,0.35,Wunderground v.1.15,2013-09-14 11:50:00,
2013-09-14 08:00:00,48.3,47.2,29.83,WNW,301,5.0,8.0,96,0.00,,,0.35,Wunderground v.1.15,2013-09-14 12:00:00,
2013-09-14 08:05:00,48.3,47.2,29.84,NNW,327,6.0,8.0,96,0.00,,,0.35,Wunderground v.1.15,2013-09-14 12:05:00,
2013-09-14 08:10:00,48.3,47.2,29.84,NW,320,6.0,6.0,96,0.00,,,0.35,Wunderground v.1.15,2013-09-14 12:10:00,
2013-09-14 08:15:00,48.3,47.2,29.84,NNW,327,6.0,6.0,96,0.00,,,0.35,Wunderground v.1.15,2013-09-14 12:15:00,
2013-09-14 08:20:00,48.4,47.3,29.84,NW,319,5.0,5.0,96,0.00,,,0.35,Wunderground v.1.15,2013-09-14 12:20:00,
2013-09-14 08:25:00,48.3,47.2,29.84,NW,326,6.0,6.0,96,0.00,,,0.35,Wunderground v.1.15,2013-09-14 12:25:00,
2013-09-14 08:30:00,48.2,47.1,29.84,NNW,336,7.0,8.0,96,0.00,,,0.35,Wunderground v.1.15,2013-09-14 12:30:00,
2013-09-14 08:35:00,48.2,47.1,29.84,NW,321,7.0,9.0,96,0.00,,,0.35,Wunderground v.1.15,2013-09-14 12:35:00,
2013-09-14 08:40:00,48.3,47.5,29.84,NW,325,7.0,7.0,97,0.00,,,0.35,Wunderground v.1.15,2013-09-14 12:40:00,
2013-09-14 08:45:00,48.3,47.5,29.84,NNW,330,7.0,7.0,97,0.00,,,0.35,Wunderground v.1.15,2013-09-14 12:45:00,
2013-09-14 08:55:00,48.7,47.9,29.84,NW,321,7.0,7.0,97,0.00,,,0.35,Wunderground v.1.15,2013-09-14 12:55:00,
2013-09-14 09:00:00,48.8,48.0,29.84,NNW,334,6.0,6.0,97,0.00,,,0.35,Wunderground v.1.15,2013-09-14 13:00:00,
2013-09-14 09:05:00,48.7,47.9,29.84,North,355,6.0,6.0,97,0.00,,,0.35,Wunderground v.1.15,2013-09-14 13:05:00,
2013-09-14 09:15:00,48.5,47.4,29.84,North,360,9.0,10.0,96,0.00,,,0.35,Wunderground v.1.15,2013-09-14 13:15:00,
2013-09-14 09:20:00,48.7,47.9,29.84,North,5,8.0,8.0,97,0.00,,,0.35,Wunderground v.1.15,2013-09-14 13:20:00,
2013-09-14 09:25:00,48.6,47.5,29.84,NNW,346,8.0,8.0,96,0.00,,,0.35,Wunderground v.1.15,2013-09-14 13:25:00,
2013-09-14 09:30:00,48.6,47.5,29.84,NNW,336,8.0,12.0,96,0.00,,,0.35,Wunderground v.1.15,2013-09-14 13:30:00,
2013-09-14 09:35:00,48.7,47.6,29.84,North,9,9.0,12.0,96,0.00,,,0.35,Wunderground v.1.15,2013-09-14 13:35:00,
2013-09-14 09:40:00,48.7,47.6,29.84,NW,321,9.0,9.0,96,0.00,,,0.35,Wunderground v.1.15,2013-09-14 13:40:00,
2013-09-14 09:45:00,48.7,47.6,29.84,North,350,8.0,9.0,96,0.00,,,0.35,Wunderground v.1.15,2013-09-14 13:45:00,
2013-09-14 09:55:00,49.1,48.0,29.84,NNW,330,7.0,8.0,96,0.00,,,0.35,Wunderground v.1.15,2013-09-14 13:55:00,
2013-09-14 10:00:00,49.2,48.1,29.84,North,11,7.0,9.0,96,0.00,,,0.35,Wunderground v.1.15,2013-09-14 14:00:00,
2013-09-14 10:10:00,49.1,47.7,29.84,NW,321,10.0,10.0,95,0.00,,,0.35,Wunderground v.1.15,2013-09-14 14:10:00,
2013-09-14 10:15:00,49.1,48.0,29.84,NNW,338,9.0,11.0,96,0.00,,,0.35,Wunderground v.1.15,2013-09-14 14:15:00,
2013-09-14 10:25:00,49.1,47.7,29.84,NW,322,10.0,10.0,95,0.00,,,0.35,Wunderground v.1.15,2013-09-14 14:25:00,
2013-09-14 10:30:00,49.1,47.7,29.83,North,355,11.0,12.0,95,0.00,,,0.35,Wunderground v.1.15,2013-09-14 14:30:00,
2013-09-14 10:40:00,49.4,48.0,29.83,NNW,329,10.0,17.0,95,0.00,,,0.35,Wunderground v.1.15,2013-09-14 14:40:00,
2013-09-14 10:45:00,49.3,47.9,29.83,North,5,10.0,17.0,95,0.00,,,0.35,Wunderground v.1.15,2013-09-14 14:45:00,
2013-09-14 10:50:00,49.3,47.9,29.84,NNW,330,10.0,15.0,95,0.00,,,0.35,Wunderground v.1.15,2013-09-14 14:50:00,
2013-09-14 10:55:00,49.0,47.3,29.84,NW,321,11.0,15.0,94,0.00,,,0.35,Wunderground v.1.15,2013-09-14 14:55:00,
2013-09-14 11:00:00,49.0,47.6,29.84,NNW,338,10.0,10.0,95,0.00,,,0.35,Wunderground v.1.15,2013-09-14 15:00:00,
2013-09-14 11:05:00,49.3,48.2,29.83,NW,304,8.0,10.0,96,0.00,,,0.35,Wunderground v.1.15,2013-09-14 15:05:00,
2013-09-14 11:15:00,49.4,48.0,29.84,NW,325,8.0,9.0,95,0.00,,,0.35,Wunderground v.1.15,2013-09-14 15:15:00,
2013-09-14 11:20:00,49.5,48.1,29.84,NNW,335,7.0,7.0,95,0.00,,,0.35,Wunderground v.1.15,2013-09-14 15:20:00,
2013-09-14 11:25:00,49.4,48.0,29.84,NW,323,7.0,7.0,95,0.00,,,0.35,Wunderground v.1.15,2013-09-14 15:25:00,
2013-09-14 11:30:00,49.4,48.0,29.84,NW,326,7.0,7.0,95,0.00,,,0.35,Wunderground v.1.15,2013-09-14 15:30:00,
2013-09-14 11:35:00,49.4,48.3,29.84,NNW,341,7.0,9.0,96,0.00,,,0.35,Wunderground v.1.15,2013-09-14 15:35:00,
2013-09-14 11:40:00,49.5,48.4,29.84,NNW,348,7.0,10.0,96,0.00,,,0.35,Wunderground v.1.15,2013-09-14 15:40:00,
2013-09-14 11:45:00,49.5,48.4,29.84,NNW,345,7.0,10.0,96,0.00,,,0.35,Wunderground v.1.15,2013-09-14 15:45:00,
2013-09-14 11:55:00,49.4,48.3,29.84,NNW,341,7.0,7.0,96,0.00,,,0.35,Wunderground v.1.15,2013-09-14 15:55:00,
2013-09-14 12:00:00,49.4,48.3,29.84,NNW,348,7.0,7.0,96,0.00,,,0.35,Wunderground v.1.15,2013-09-14 16:00:00,
2013-09-14 12:05:00,49.6,48.5,29.84,North,349,6.0,7.0,96,0.00,,,0.35,Wunderground v.1.15,2013-09-14 16:05:00,
2013-09-14 12:10:00,49.6,48.5,29.84,North,350,6.0,7.0,96,0.00,,,0.35,Wunderground v.1.15,2013-09-14 16:10:00,
2013-09-14 12:15:00,49.6,48.5,29.84,NNW,338,5.0,7.0,96,0.00,,,0.35,Wunderground v.1.15,2013-09-14 16:15:00,
2013-09-14 12:25:00,49.6,48.5,29.84,North,355,6.0,9.0,96,0.00,,,0.35,Wunderground v.1.15,2013-09-14 16:25:00,
2013-09-14 12:30:00,49.6,48.5,29.84,NNW,342,6.0,6.0,96,0.00,,,0.35,Wunderground v.1.15,2013-09-14 16:30:00,
2013-09-14 12:35:00,49.7,48.6,29.84,NNW,340,5.0,6.0,96,0.00,,,0.35,Wunderground v.1.15,2013-09-14 16:35:00,
2013-09-14 12:40:00,49.8,48.7,29.84,NNW,342,5.0,5.0,96,0.00,,,0.35,Wunderground v.1.15,2013-09-14 16:40:00,
2013-09-14 12:45:00,49.9,48.8,29.84,North,355,5.0,6.0,96,0.00,,,0.36,Wunderground v.1.15,2013-09-14 16:45:00,
2013-09-14 12:50:00,49.9,49.1,29.84,NNW,339,5.0,6.0,97,0.08,,,0.37,Wunderground v.1.15,2013-09-14 16:50:00,
2013-09-14 12:55:00,50.0,50.0,29.84,NW,315,5.0,6.0,100,0.08,,,0.37,Wunderground v.1.15,2013-09-14 16:55:00,
2013-09-14 13:00:00,49.8,48.7,29.84,NW,314,5.0,5.0,96,0.05,,,0.37,Wunderground v.1.15,2013-09-14 17:00:00,
2013-09-14 13:05:00,49.7,48.6,29.84,NNW,327,4.0,5.0,96,0.05,,,0.38,Wunderground v.1.15,2013-09-14 17:05:00,
2013-09-14 13:15:00,49.8,48.7,29.84,WNW,303,2.0,3.0,96,0.07,,,0.40,Wunderground v.1.15,2013-09-14 17:15:00,
2013-09-14 13:25:00,49.7,48.6,29.84,WNW,298,2.0,3.0,96,0.12,,,0.41,Wunderground v.1.15,2013-09-14 17:25:00,
2013-09-14 13:30:00,49.9,48.8,29.85,WNW,300,2.0,2.0,96,0.06,,,0.41,Wunderground v.1.15,2013-09-14 17:30:00,
2013-09-14 13:35:00,49.8,48.7,29.85,West,266,2.0,3.0,96,0.04,,,0.41,Wunderground v.1.15,2013-09-14 17:35:00,
2013-09-14 13:40:00,50.0,48.9,29.85,WSW,250,4.0,4.0,96,0.00,,,0.41,Wunderground v.1.15,2013-09-14 17:40:00,
2013-09-14 13:45:00,49.8,48.7,29.85,WNW,288,4.0,4.0,96,0.00,,,0.41,Wunderground v.1.15,2013-09-14 17:45:00,
2013-09-14 13:50:00,49.8,48.7,29.85,WNW,290,4.0,4.0,96,0.00,,,0.41,Wunderground v.1.15,2013-09-14 17:50:00,
2013-09-14 13:55:00,50.0,48.9,29.85,WNW,301,3.0,4.0,96,0.00,,,0.41,Wunderground v.1.15,2013-09-14 17:55:00,
2013-09-14 14:00:00,49.9,48.5,29.85,West,265,3.0,7.0,95,0.00,,,0.41,Wunderground v.1.15,2013-09-14 18:00:00,
2013-09-14 14:05:00,49.8,48.4,29.85,West,259,4.0,8.0,95,0.00,,,0.41,Wunderground v.1.15,2013-09-14 18:05:00,
2013-09-14 14:15:00,49.8,48.4,29.85,WNW,298,4.0,5.0,95,0.00,,,0.41,Wunderground v.1.15,2013-09-14 18:15:00,
2013-09-14 14:20:00,50.0,48.6,29.85,WNW,300,3.0,3.0,95,0.00,,,0.41,Wunderground v.1.15,2013-09-14 18:20:00,
2013-09-14 14:25:00,50.1,48.4,29.85,WNW,302,3.0,3.0,94,0.00,,,0.41,Wunderground v.1.15,2013-09-14 18:25:00,
2013-09-14 14:30:00,50.7,49.3,29.85,West,277,4.0,4.0,95,0.00,,,0.41,Wunderground v.1.15,2013-09-14 18:30:00,
2013-09-14 14:40:00,50.6,48.9,29.85,WNW,292,5.0,5.0,94,0.00,,,0.41,Wunderground v.1.15,2013-09-14 18:40:00,
2013-09-14 14:45:00,50.7,49.0,29.85,NW,318,4.0,5.0,94,0.00,,,0.41,Wunderground v.1.15,2013-09-14 18:45:00,
2013-09-14 14:50:00,50.9,49.2,29.85,WNW,296,4.0,6.0,94,0.00,,,0.41,Wunderground v.1.15,2013-09-14 18:50:00,
2013-09-14 14:55:00,50.8,49.1,29.86,WNW,294,4.0,6.0,94,0.00,,,0.41,Wunderground v.1.15,2013-09-14 18:55:00,
2013-09-14 15:00:00,50.8,49.1,29.86,WNW,294,5.0,5.0,94,0.00,,,0.41,Wunderground v.1.15,2013-09-14 19:00:00,
2013-09-14 15:05:00,50.5,48.6,29.86,West,281,5.0,5.0,93,0.00,,,0.41,Wunderground v.1.15,2013-09-14 19:05:00,
2013-09-14 15:10:00,50.8,49.1,29.85,WNW,282,4.0,6.0,94,0.00,,,0.41,Wunderground v.1.15,2013-09-14 19:10:00,
2013-09-14 15:15:00,50.7,48.7,29.85,WNW,290,4.0,6.0,93,0.00,,,0.41,Wunderground v.1.15,2013-09-14 19:15:00,
2013-09-14 15:20:00,50.7,48.5,29.86,WNW,294,5.0,7.0,92,0.00,,,0.41,Wunderground v.1.15,2013-09-14 19:20:00,
2013-09-14 15:25:00,50.6,48.4,29.86,WNW,286,6.0,7.0,92,0.00,,,0.41,Wunderground v.1.15,2013-09-14 19:25:00,
2013-09-14 15:30:00,50.6,48.4,29.86,WNW,294,6.0,6.0,92,0.00,,,0.41,Wunderground v.1.15,2013-09-14 19:30:00,
2013-09-14 15:35:00,50.6,48.4,29.86,NW,304,6.0,7.0,92,0.00,,,0.41,Wunderground v.1.15,2013-09-14 19:35:00,
2013-09-14 15:40:00,50.6,48.4,29.86,West,276,5.0,5.0,92,0.00,,,0.41,Wunderground v.1.15,2013-09-14 19:40:00,
2013-09-14 15:45:00,50.6,48.1,29.86,West,277,5.0,6.0,91,0.00,,,0.41,Wunderground v.1.15,2013-09-14 19:45:00,
2013-09-14 15:55:00,50.6,48.1,29.86,WNW,296,5.0,9.0,91,0.00,,,0.41,Wunderground v.1.15,2013-09-14 19:55:00,
2013-09-14 16:00:00,50.6,48.1,29.87,WNW,291,6.0,6.0,91,0.00,,,0.41,Wunderground v.1.15,2013-09-14 20:00:00,
2013-09-14 16:05:00,50.6,48.4,29.87,West,281,5.0,6.0,92,0.00,,,0.41,Wunderground v.1.15,2013-09-14 20:05:00,
2013-09-14 16:10:00,50.6,48.1,29.87,West,264,5.0,5.0,91,0.00,,,0.41,Wunderground v.1.15,2013-09-14 20:10:00,
2013-09-14 16:15:00,50.6,48.1,29.88,West,281,5.0,5.0,91,0.00,,,0.41,Wunderground v.1.15,2013-09-14 20:15:00,
2013-09-14 16:25:00,50.3,47.8,29.88,WSW,257,6.0,8.0,91,0.00,,,0.41,Wunderground v.1.15,2013-09-14 20:25:00,
2013-09-14 16:30:00,50.1,47.6,29.88,West,268,5.0,5.0,91,0.00,,,0.41,Wunderground v.1.15,2013-09-14 20:30:00,
2013-09-14 16:35:00,50.1,47.9,29.88,WNW,293,5.0,5.0,92,0.00,,,0.41,Wunderground v.1.15,2013-09-14 20:35:00,
2013-09-14 16:40:00,50.0,47.5,29.88,WNW,290,4.0,5.0,91,0.00,,,0.41,Wunderground v.1.15,2013-09-14 20:40:00,
2013-09-14 16:45:00,50.0,47.5,29.88,WNW,300,5.0,6.0,91,0.00,,,0.41,Wunderground v.1.15,2013-09-14 20:45:00,
2013-09-14 16:50:00,49.9,47.4,29.88,NW,322,5.0,7.0,91,0.00,,,0.41,Wunderground v.1.15,2013-09-14 20:50:00,
2013-09-14 16:55:00,49.9,47.4,29.89,NW,309,6.0,7.0,91,0.00,,,0.41,Wunderground v.1.15,2013-09-14 20:55:00,
2013-09-14 17:00:00,49.6,47.1,29.89,NW,313,7.0,7.0,91,0.00,,,0.41,Wunderground v.1.15,2013-09-14 21:00:00,
2013-09-14 17:05:00,49.7,47.5,29.89,NW,310,6.0,7.0,92,0.00,,,0.41,Wunderground v.1.15,2013-09-14 21:05:00,
2013-09-14 17:15:00,49.6,47.1,29.89,WNW,290,6.0,7.0,91,0.00,,,0.41,Wunderground v.1.15,2013-09-14 21:15:00,
2013-09-14 17:20:00,49.4,46.9,29.89,WNW,300,5.0,5.0,91,0.00,,,0.41,Wunderground v.1.15,2013-09-14 21:20:00,
2013-09-14 17:25:00,49.4,46.9,29.90,WNW,303,4.0,5.0,91,0.00,,,0.41,Wunderground v.1.15,2013-09-14 21:25:00,
2013-09-14 17:30:00,49.4,46.9,29.90,WNW,299,4.0,5.0,91,0.00,,,0.41,Wunderground v.1.15,2013-09-14 21:30:00,
2013-09-14 17:35:00,49.4,46.9,29.90,West,281,4.0,5.0,91,0.00,,,0.41,Wunderground v.1.15,2013-09-14 21:35:00,
2013-09-14 17:40:00,49.3,46.5,29.90,WNW,286,5.0,6.0,90,0.00,,,0.41,Wunderground v.1.15,2013-09-14 21:40:00,
2013-09-14 17:45:00,49.2,46.4,29.90,WNW,288,6.0,7.0,90,0.00,,,0.41,Wunderground v.1.15,2013-09-14 21:45:00,
2013-09-14 17:50:00,49.2,46.1,29.90,WNW,290,6.0,6.0,89,0.00,,,0.41,Wunderground v.1.15,2013-09-14 21:50:00,
2013-09-14 17:55:00,49.1,46.3,29.90,WNW,286,6.0,6.0,90,0.00,,,0.41,Wunderground v.1.15,2013-09-14 21:55:00,
2013-09-14 18:00:00,49.0,46.2,29.91,WNW,298,5.0,5.0,90,0.00,,,0.41,Wunderground v.1.15,2013-09-14 22:00:00,
2013-09-14 18:05:00,48.9,46.1,29.91,WNW,283,5.0,5.0,90,0.00,,,0.41,Wunderground v.1.15,2013-09-14 22:05:00,
2013-09-14 18:10:00,48.7,45.9,29.91,WNW,290,4.0,5.0,90,0.00,,,0.41,Wunderground v.1.15,2013-09-14 22:10:00,
2013-09-14 18:15:00,48.7,46.2,29.92,West,269,4.0,6.0,91,0.00,,,0.41,Wunderground v.1.15,2013-09-14 22:15:00,
2013-09-14 18:25:00,48.7,46.2,29.92,WNW,289,3.0,4.0,91,0.00,,,0.41,Wunderground v.1.15,2013-09-14 22:25:00,
2013-09-14 18:30:00,48.7,46.2,29.92,WNW,284,3.0,5.0,91,0.00,,,0.41,Wunderground v.1.15,2013-09-14 22:30:00,
2013-09-14 18:35:00,48.7,46.2,29.92,NW,309,3.0,5.0,91,0.00,,,0.41,Wunderground v.1.15,2013-09-14 22:35:00,
2013-09-14 18:40:00,48.6,46.1,29.92,WNW,286,3.0,3.0,91,0.00,,,0.41,Wunderground v.1.15,2013-09-14 22:40:00,
2013-09-14 18:45:00,48.5,46.0,29.92,West,269,2.0,3.0,91,0.00,,,0.41,Wunderground v.1.15,2013-09-14 22:45:00,
2013-09-14 18:55:00,48.2,45.7,29.92,West,265,1.0,3.0,91,0.00,,,0.41,Wunderground v.1.15,2013-09-14 22:55:00,
2013-09-14 19:00:00,48.0,45.5,29.92,WNW,287,1.0,1.0,91,0.00,,,0.41,Wunderground v.1.15,2013-09-14 23:00:00,
2013-09-14 19:05:00,47.8,45.6,29.92,WNW,286,1.0,1.0,92,0.00,,,0.41,Wunderground v.1.15,2013-09-14 23:05:00,
2013-09-14 19:10:00,47.7,45.5,29.92,West,281,1.0,1.0,92,0.00,,,0.41,Wunderground v.1.15,2013-09-14 23:10:00,
2013-09-14 19:15:00,47.6,45.4,29.92,WNW,290,2.0,2.0,92,0.00,,,0.41,Wunderground v.1.15,2013-09-14 23:15:00,
2013-09-14 19:20:00,47.5,45.3,29.93,WNW,288,1.0,4.0,92,0.00,,,0.41,Wunderground v.1.15,2013-09-14 23:20:00,
2013-09-14 19:25:00,47.4,45.2,29.93,WNW,283,2.0,5.0,92,0.00,,,0.41,Wunderground v.1.15,2013-09-14 23:25:00,
2013-09-14 19:30:00,47.4,45.5,29.93,WNW,291,2.0,3.0,93,0.00,,,0.41,Wunderground v.1.15,2013-09-14 23:30:00,
2013-09-14 19:40:00,47.5,45.6,29.94,WNW,286,2.0,2.0,93,0.00,,,0.41,Wunderground v.1.15,2013-09-14 23:40:00,
2013-09-14 19:45:00,47.6,45.7,29.94,WNW,286,0.0,2.0,93,0.00,,,0.41,Wunderground v.1.15,2013-09-14 23:45:00,
2013-09-14 19:50:00,47.7,45.8,29.93,WNW,286,0.0,0.0,93,0.00,,,0.41,Wunderground v.1.15,2013-09-14 23:50:00,
2013-09-14 19:55:00,47.7,45.8,29.93,WNW,286,0.0,0.0,93,0.00,,,0.41,Wunderground v.1.15,2013-09-14 23:55:00,
2013-09-14 20:00:00,47.7,45.8,29.93,WNW,286,0.0,0.0,93,0.00,,,0.41,Wunderground v.1.15,2013-09-15 00:00:00,
2013-09-14 20:05:00,47.6,45.7,29.93,WNW,286,0.0,0.0,93,0.00,,,0.41,Wunderground v.1.15,2013-09-15 00:05:00,
2013-09-14 20:10:00,47.3,45.4,29.93,WNW,286,0.0,0.0,93,0.00,,,0.41,Wunderground v.1.15,2013-09-15 00:10:00,
2013-09-14 20:15:00,47.2,45.3,29.94,WNW,286,0.0,0.0,93,0.00,,,0.41,Wunderground v.1.15,2013-09-15 00:15:00,
2013-09-14 20:20:00,47.2,45.6,29.94,WNW,286,0.0,0.0,94,0.00,,,0.41,Wunderground v.1.15,2013-09-15 00:20:00,
2013-09-14 20:30:00,47.3,45.7,29.94,WNW,286,0.0,0.0,94,0.00,,,0.41,Wunderground v.1.15,2013-09-15 00:30:00,
2013-09-14 20:35:00,47.2,45.6,29.94,WNW,286,0.0,0.0,94,0.00,,,0.41,Wunderground v.1.15,2013-09-15 00:35:00,
2013-09-14 20:40:00,47.2,45.6,29.94,WNW,286,0.0,0.0,94,0.00,,,0.41,Wunderground v.1.15,2013-09-15 00:40:00,
2013-09-14 20:45:00,47.0,45.4,29.94,WNW,286,0.0,0.0,94,0.00,,,0.41,Wunderground v.1.15,2013-09-15 00:45:00,
2013-09-14 20:50:00,46.8,45.2,29.94,WNW,286,0.0,2.0,94,0.00,,,0.41,Wunderground v.1.15,2013-09-15 00:50:00,
2013-09-14 20:55:00,46.7,45.1,29.95,WNW,286,0.0,2.0,94,0.00,,,0.41,Wunderground v.1.15,2013-09-15 00:55:00,
2013-09-14 21:00:00,46.6,45.2,29.95,WNW,286,0.0,0.0,95,0.00,,,0.41,Wunderground v.1.15,2013-09-15 01:00:00,
2013-09-14 21:10:00,46.4,45.0,29.95,WNW,286,0.0,0.0,95,0.00,,,0.41,Wunderground v.1.15,2013-09-15 01:10:00,
2013-09-14 21:15:00,46.3,44.9,29.95,WNW,286,0.0,0.0,95,0.00,,,0.41,Wunderground v.1.15,2013-09-15 01:15:00,
2013-09-14 21:20:00,46.1,44.7,29.95,WNW,286,0.0,0.0,95,0.00,,,0.41,Wunderground v.1.15,2013-09-15 01:20:00,
2013-09-14 21:25:00,45.8,44.4,29.95,WNW,286,0.0,0.0,95,0.00,,,0.41,Wunderground v.1.15,2013-09-15 01:25:00,
2013-09-14 21:30:00,45.6,44.3,29.95,WSW,253,1.0,1.0,95,0.00,,,0.41,Wunderground v.1.15,2013-09-15 01:30:00,
2013-09-14 21:40:00,45.1,43.8,29.95,WSW,253,1.0,1.0,95,0.00,,,0.41,Wunderground v.1.15,2013-09-15 01:40:00,
2013-09-14 21:45:00,44.6,43.3,29.95,WSW,253,0.0,1.0,95,0.00,,,0.41,Wunderground v.1.15,2013-09-15 01:45:00,
2013-09-14 21:50:00,44.5,43.2,29.95,WSW,253,0.0,0.0,95,0.00,,,0.41,Wunderground v.1.15,2013-09-15 01:50:00,
2013-09-14 21:55:00,44.8,43.7,29.95,WSW,253,0.0,0.0,96,0.00,,,0.41,Wunderground v.1.15,2013-09-15 01:55:00,
2013-09-14 22:00:00,45.0,43.9,29.95,WSW,253,0.0,0.0,96,0.00,,,0.41,Wunderground v.1.15,2013-09-15 02:00:00,
2013-09-14 22:05:00,45.0,43.9,29.94,WSW,253,0.0,0.0,96,0.00,,,0.41,Wunderground v.1.15,2013-09-15 02:05:00,
2013-09-14 22:10:00,44.9,43.8,29.94,WSW,253,0.0,0.0,96,0.00,,,0.41,Wunderground v.1.15,2013-09-15 02:10:00,
2013-09-14 22:15:00,44.8,43.7,29.95,WSW,242,0.0,0.0,96,0.00,,,0.41,Wunderground v.1.15,2013-09-15 02:15:00,
2013-09-14 22:20:00,44.8,43.7,29.95,SW,234,1.0,2.0,96,0.00,,,0.41,Wunderground v.1.15,2013-09-15 02:20:00,
2013-09-14 22:25:00,44.7,43.6,29.95,SW,235,1.0,2.0,96,0.00,,,0.41,Wunderground v.1.15,2013-09-15 02:25:00,
2013-09-14 22:30:00,44.6,43.5,29.95,SW,235,1.0,1.0,96,0.00,,,0.41,Wunderground v.1.15,2013-09-15 02:30:00,
2013-09-14 22:35:00,44.1,43.0,29.95,SW,235,0.0,1.0,96,0.00,,,0.41,Wunderground v.1.15,2013-09-15 02:35:00,
2013-09-14 22:40:00,44.3,43.2,29.95,SW,234,0.0,0.0,96,0.00,,,0.41,Wunderground v.1.15,2013-09-15 02:40:00,
2013-09-14 22:45:00,44.1,43.0,29.95,SW,235,0.0,0.0,96,0.00,,,0.41,Wunderground v.1.15,2013-09-15 02:45:00,
2013-09-14 22:50:00,44.0,42.9,29.95,SW,235,0.0,0.0,96,0.00,,,0.41,Wunderground v.1.15,2013-09-15 02:50:00,
2013-09-14 22:55:00,44.1,43.0,29.95,SW,235,0.0,0.0,96,0.00,,,0.41,Wunderground v.1.15,2013-09-15 02:55:00,
2013-09-14 23:00:00,44.3,43.2,29.95,SW,234,0.0,0.0,96,0.00,,,0.41,Wunderground v.1.15,2013-09-15 03:00:00,
2013-09-14 23:05:00,44.5,43.7,29.95,SW,235,0.0,0.0,97,0.00,,,0.41,Wunderground v.1.15,2013-09-15 03:05:00,
2013-09-14 23:10:00,44.7,43.9,29.95,SW,235,0.0,0.0,97,0.00,,,0.41,Wunderground v.1.15,2013-09-15 03:10:00,
2013-09-14 23:15:00,45.0,44.2,29.95,SW,234,0.0,0.0,97,0.00,,,0.41,Wunderground v.1.15,2013-09-15 03:15:00,
2013-09-14 23:20:00,45.0,44.2,29.95,SW,234,0.0,0.0,97,0.00,,,0.41,Wunderground v.1.15,2013-09-15 03:20:00,
2013-09-14 23:25:00,45.2,44.4,29.95,SW,235,0.0,0.0,97,0.00,,,0.41,Wunderground v.1.15,2013-09-15 03:25:00,
2013-09-14 23:30:00,45.4,44.6,29.95,SW,235,0.0,0.0,97,0.00,,,0.41,Wunderground v.1.15,2013-09-15 03:30:00,
2013-09-14 23:35:00,45.5,44.7,29.95,SW,235,0.0,0.0,97,0.00,,,0.41,Wunderground v.1.15,2013-09-15 03:35:00,
2013-09-14 23:40:00,45.6,44.8,29.95,SW,234,0.0,0.0,97,0.00,,,0.41,Wunderground v.1.15,2013-09-15 03:40:00,
2013-09-14 23:45:00,45.8,45.0,29.95,SW,235,0.0,0.0,97,0.00,,,0.41,Wunderground v.1.15,2013-09-15 03:45:00,
2013-09-14 23:50:00,45.9,45.1,29.95,SW,234,0.0,0.0,97,0.00,,,0.41,Wunderground v.1.15,2013-09-15 03:50:00,
2013-09-14 23:55:00,46.0,45.2,29.96,SW,235,0.0,0.0,97,0.00,,,0.00,Wunderground v.1.15,2013-09-15 03:55:00,